Regional Weather Roundup
Issued by NWS

Home | Current Version | Previous Version | Text Only | Print | Product List | Glossary On
Versions: 1 2 3 4 5 6 7 8 9 10 11 12 13 14 15 16 17 18 19 20 21 22 23 24 25 26 27 28 29 30 31 32 33 34 35 36 37 38 39 40 41 42 43 44 45 46 47 48 49 50
000
ASUS44 KBMX 030310
RWRAL

ALABAMA REGIONAL WEATHER ROUNDUP
NATIONAL WEATHER SERVICE BIRMINGHAM AL
900 PM CST MON MAR 02 2015

NOTE: "FAIR" INDICATES FEW OR NO CLOUDS BELOW 12,000 FEET
WITH NO SIGNIFICANT WEATHER AND/OR OBSTRUCTIONS TO VISIBILITY.

THE REMARK "TC" DENOTES TEMPERATURE IN DEGREES CELSIUS.

ALZ001>011-014-016>018-020-030400-
NORTH ALABAMA

CITY           SKY/WX    TMP DP  RH WIND       PRES   REMARKS
MUSCLE SHOALS  CLOUDY    45  40  82 CALM      30.29S
HUNTSVILLE     LGT RAIN  47  42  83 CALM      30.27F
DECATUR        CLOUDY    44  42  93 CALM      30.28S
HALEYVILLE       N/A     41  41 100 NE3       30.28F FOG
GADSDEN        CLOUDY    50  46  87 CALM      30.26F
$$

ALZ012-013-022-023-030>036-040>044-030400-
WEST CENTRAL ALABAMA

CITY           SKY/WX    TMP DP  RH WIND       PRES   REMARKS
TUSCALOOSA     CLOUDY    51  47  86 CALM      30.27F
$$

ALZ015-024>027-033>036-040>044-030400-
CENTRAL ALABAMA

CITY           SKY/WX    TMP DP  RH WIND       PRES   REMARKS
BIRMINGHAM     CLOUDY    50  48  93 VRB3      30.28F FOG
MONTGOMERY     CLOUDY    57  55  94 CALM      30.26S FOG
SHELBY CO ARPT CLOUDY    51  50  96 E5        30.25F
MAXWELL AFB    FOG       57  56  99 N2        30.25F VSB 1/2
GREENVILLE     LGT RAIN  59  57  94 CALM      30.24S FOG
$$

ALZ019-021-028-029-037-038-045>048-030400-
EAST CENTRAL ALABAMA

CITY           SKY/WX    TMP DP  RH WIND       PRES   REMARKS
ANNISTON       CLOUDY    52  50  93 CALM      30.27S
ALEXANDER CITY CLOUDY    59  55  84 CALM      30.26S
AUBURN         CLOUDY    57  54  88 NW5       30.29R
$$

ALZ051>064-030400-
SOUTHWEST ALABAMA

CITY           SKY/WX    TMP DP  RH WIND       PRES   REMARKS
MOBILE         FOG       62  62 100 E3        30.24R VSB 1/4
BROOKLEY FIELD CLOUDY    61  61 100 CALM      30.26R FOG
EVERGREEN      LGT RAIN  60  59  96 CALM      30.25S FOG
$$

ALZ049-050-065>069-030400-
SOUTHEAST ALABAMA

CITY           SKY/WX    TMP DP  RH WIND       PRES   REMARKS
DOTHAN         CLOUDY    61  60  97 CALM      30.28R
OZARK          CLOUDY    61  58  92 E3        30.24S
TROY           LGT RAIN  60  60 100 CALM      30.25S FOG
EUFAULA        CLOUDY    63  61  93 CALM      30.24S FOG
$$



USA.gov is the U.S. government's official web portal to all federal, state and local government web resources and services.